Photometre #855[NE_1.6_Dp] Loftus_MO AOT

File : 20220920_855.hum

20/09/2022,06:46:22,TEMP=12.7,BA=5.64,STAT.A,ExtBa=12.20
20/09/2022,06:50:49,TEMP=12.9,BA=5.64,STAT.A,ExtBa=12.20
20/09/2022,06:56:02,TEMP=13.0,BA=5.64,STAT.A,ExtBa=12.20
20/09/2022,07:02:15,TEMP=13.1,BA=5.64,STAT.A,ExtBa=12.20
20/09/2022,07:09:46,TEMP=13.2,BA=5.64,STAT.A,ExtBa=12.20
20/09/2022,07:19:04,TEMP=13.4,BA=5.64,STAT.A,ExtBa=12.20
20/09/2022,07:30:23,TEMP=13.6,BA=5.64,STAT.D,ExtBa=12.20
20/09/2022,07:32:21,TEMP=14.1,BA=5.64,STAT.B,ExtBa=12.20
20/09/2022,07:36:36,TEMP=14.0,BA=5.64,STAT.A,ExtBa=12.20
20/09/2022,07:43:06,TEMP=14.2,BA=5.60,STAT.A,ExtBa=12.20
20/09/2022,07:50:17,TEMP=14.5,BA=5.64,STAT.A,ExtBa=12.20
20/09/2022,07:58:36,TEMP=14.7,BA=5.64,STAT.A,ExtBa=12.20
20/09/2022,08:08:15,TEMP=15.0,BA=5.60,STAT.C,ExtBa=12.20
20/09/2022,08:19:37,TEMP=15.6,BA=5.64,STAT.A,ExtBa=12.20
20/09/2022,08:24:23,TEMP=15.9,BA=5.60,STAT.D,ExtBa=12.20
20/09/2022,08:27:23,TEMP=16.1,BA=5.60,STAT.D,ExtBa=12.20
20/09/2022,08:30:23,TEMP=16.3,BA=5.64,STAT.D,ExtBa=12.20
20/09/2022,08:33:15,TEMP=16.4,BA=5.64,STAT.A,ExtBa=12.20
20/09/2022,08:36:23,TEMP=16.6,BA=5.64,STAT.D,ExtBa=12.20
20/09/2022,08:39:23,TEMP=16.7,BA=5.64,STAT.D,ExtBa=12.20
20/09/2022,08:42:23,TEMP=16.8,BA=5.60,STAT.D,ExtBa=12.20
20/09/2022,08:45:23,TEMP=16.9,BA=5.60,STAT.D,ExtBa=12.20
20/09/2022,08:50:02,TEMP=16.8,BA=5.60,STAT.A,ExtBa=12.20
20/09/2022,08:57:40,TEMP=16.6,BA=5.60,STAT.F,ExtBa=12.20
20/09/2022,09:21:44,TEMP=17.7,BA=5.60,STAT.b=11.0
20/09/2022,09:22:18,TEMP=17.7,BA=5.60,STAT.b=11.0
20/09/2022,09:28:08,TEMP=17.2,BA=5.60,STAT.D,ExtBa=12.10
20/09/2022,09:30:05,TEMP=17.6,BA=5.60,STAT.D,ExtBa=12.10
20/09/2022,09:33:23,TEMP=17.5,BA=5.60,STAT.D,ExtBa=12.10
20/09/2022,09:36:23,TEMP=17.6,BA=5.60,STAT.D,ExtBa=12.10
20/09/2022,09:39:23,TEMP=17.7,BA=5.60,STAT.D,ExtBa=12.10
20/09/2022,09:42:23,TEMP=17.8,BA=5.60,STAT.D,ExtBa=12.10
20/09/2022,09:44:20,TEMP=18.1,BA=5.60,STAT.D,ExtBa=12.10
20/09/2022,09:48:23,TEMP=17.8,BA=5.60,STAT.D,ExtBa=12.10
20/09/2022,09:57:40,TEMP=17.5,BA=5.64,STAT.F,ExtBa=12.20
20/09/2022,10:12:39,TEMP=17.3,BA=5.64,STAT.D,ExtBa=12.10
20/09/2022,10:24:24,TEMP=16.7,BA=5.64,STAT.D,ExtBa=12.10
20/09/2022,10:27:39,TEMP=16.8,BA=5.64,STAT.D,ExtBa=12.10
20/09/2022,10:39:24,TEMP=16.4,BA=5.56,STAT.D,ExtBa=12.20
20/09/2022,10:42:39,TEMP=16.5,BA=5.60,STAT.D,ExtBa=12.20
20/09/2022,10:54:24,TEMP=16.3,BA=5.64,STAT.D,ExtBa=12.20
20/09/2022,10:57:40,TEMP=16.5,BA=5.64,STAT.F,ExtBa=12.20
20/09/2022,11:09:24,TEMP=16.2,BA=5.64,STAT.D,ExtBa=12.20
20/09/2022,11:12:39,TEMP=16.3,BA=5.60,STAT.D,ExtBa=12.20
20/09/2022,11:24:24,TEMP=16.1,BA=5.64,STAT.D,ExtBa=12.20
20/09/2022,11:27:39,TEMP=16.3,BA=5.64,STAT.D,ExtBa=12.20
20/09/2022,11:39:24,TEMP=16.3,BA=5.64,STAT.D,ExtBa=12.20
20/09/2022,11:42:39,TEMP=16.5,BA=5.60,STAT.D,ExtBa=12.20
20/09/2022,11:54:24,TEMP=16.6,BA=5.64,STAT.D,ExtBa=12.20
20/09/2022,11:57:40,TEMP=16.9,BA=5.64,STAT.F,ExtBa=12.20
20/09/2022,12:09:24,TEMP=17.1,BA=5.64,STAT.D,ExtBa=12.20
20/09/2022,12:12:39,TEMP=17.4,BA=5.60,STAT.D,ExtBa=12.20
20/09/2022,12:24:24,TEMP=17.4,BA=5.64,STAT.D,ExtBa=12.20
20/09/2022,12:27:39,TEMP=17.5,BA=5.64,STAT.D,ExtBa=12.20
20/09/2022,12:39:24,TEMP=17.6,BA=5.64,STAT.D,ExtBa=12.20
20/09/2022,12:42:39,TEMP=17.8,BA=5.60,STAT.D,ExtBa=12.20
20/09/2022,12:54:24,TEMP=17.8,BA=5.64,STAT.D,ExtBa=12.20
20/09/2022,12:57:40,TEMP=18.1,BA=5.64,STAT.F,ExtBa=12.20
20/09/2022,13:09:24,TEMP=18.2,BA=5.64,STAT.D,ExtBa=12.20
20/09/2022,13:12:39,TEMP=18.4,BA=5.60,STAT.D,ExtBa=12.20
20/09/2022,13:24:24,TEMP=18.4,BA=5.64,STAT.D,ExtBa=12.20
20/09/2022,13:27:39,TEMP=18.6,BA=5.64,STAT.D,ExtBa=12.20
20/09/2022,13:39:24,TEMP=18.6,BA=5.56,STAT.D,ExtBa=12.20
20/09/2022,13:42:39,TEMP=18.8,BA=5.60,STAT.D,ExtBa=12.20
20/09/2022,13:54:25,TEMP=18.8,BA=5.64,STAT.D,ExtBa=12.20
20/09/2022,13:57:40,TEMP=18.9,BA=5.64,STAT.F,ExtBa=12.20
20/09/2022,14:09:23,TEMP=18.8,BA=5.64,STAT.D,ExtBa=12.20
20/09/2022,14:12:39,TEMP=19.1,BA=5.56,STAT.D,ExtBa=12.20
20/09/2022,14:24:23,TEMP=18.8,BA=5.64,STAT.D,ExtBa=12.20
20/09/2022,14:27:38,TEMP=18.9,BA=5.64,STAT.D,ExtBa=12.20
20/09/2022,14:39:23,TEMP=18.3,BA=5.52,STAT.D,ExtBa=12.20
20/09/2022,14:42:23,TEMP=18.5,BA=5.56,STAT.D,ExtBa=12.20
20/09/2022,14:44:23,TEMP=18.8,BA=5.56,STAT.D,ExtBa=12.10
20/09/2022,14:57:25,TEMP=18.3,BA=5.64,STAT.D,ExtBa=12.20
20/09/2022,14:59:23,TEMP=18.7,BA=5.64,STAT.F,ExtBa=12.20
20/09/2022,15:05:18,TEMP=18.3,BA=5.56,STAT.A,ExtBa=12.20
20/09/2022,15:18:23,TEMP=18.1,BA=5.64,STAT.D,ExtBa=12.20
20/09/2022,15:22:05,TEMP=18.2,BA=5.60,STAT.A,ExtBa=12.20
20/09/2022,15:33:23,TEMP=17.7,BA=5.64,STAT.D,ExtBa=12.20
20/09/2022,15:35:43,TEMP=18.0,BA=5.64,STAT.A,ExtBa=12.20
20/09/2022,15:47:05,TEMP=17.4,BA=5.64,STAT.C,ExtBa=12.20
20/09/2022,15:56:44,TEMP=17.3,BA=5.64,STAT.A,ExtBa=12.20
20/09/2022,16:05:03,TEMP=17.0,BA=5.64,STAT.A,ExtBa=12.20
20/09/2022,16:12:18,TEMP=16.6,BA=5.64,STAT.A,ExtBa=12.20
20/09/2022,16:18:42,TEMP=16.4,BA=5.64,STAT.A,ExtBa=12.20
20/09/2022,16:24:24,TEMP=16.2,BA=5.56,STAT.B,ExtBa=12.20
20/09/2022,16:36:14,TEMP=15.8,BA=5.64,STAT.A,ExtBa=12.20
20/09/2022,16:45:32,TEMP=15.7,BA=5.64,STAT.A,ExtBa=12.20
20/09/2022,16:53:03,TEMP=15.6,BA=5.64,STAT.A,ExtBa=12.20
20/09/2022,16:59:16,TEMP=15.6,BA=5.64,STAT.A,ExtBa=12.20
20/09/2022,17:03:23,TEMP=15.6,BA=5.60,STAT.D,ExtBa=12.20
20/09/2022,17:05:21,TEMP=16.0,BA=5.60,STAT.A,ExtBa=12.20
20/09/2022,17:08:56,TEMP=15.7,BA=5.60,STAT.A,ExtBa=12.20